UBAKUSAT (43467 NORAD) Tracking and Keplerian Element Data

This shows tracking and keplerian element data for the satellite.

Feedback or suggestion? Click here.




ElementValue
Catalog43467
NameUBAKUSAT
Epoch Orbit5411
Epoch Day113.63126263
Epoch Year2019
RAAN261.1646
Inclination51.6376
Eccentricity0.0002384
Argument of Perigee220.3566
Mean Anonmoly139.7252
Mean Motion15.61559389
Decay Rate0.00011506
L11 43467U 98067NQ 19113.63126263 .00011506 00000-0 13729-3 0 9996
L22 43467 51.6376 261.1646 0002384 220.3566 139.7252 15.61559389 54113

Live tracking and technical data element details for UBAKUSAT (NORAD 43467). UBAKUSAT can be tracked NOW for your location showing map with azimuth and elevation plus other details from your city location.

Track the satellite on the map from your city or location and see movement details for azimuth, elevation, latitude, longitude, range, height, and movement on the map or in text.







IsCatalogInMostPopularTable: catalog: 43467, numindb: 181
Update: records affected: 1



GetName: 43467 UBAKUSAT

Hit Count: updated at: Wed, 24 Apr 2019 18:24:54 GMT